Content
SEND FEEDBACK

Daily
Averages
Monthly
Summary
United States of America

TAYLOR, NEBRASKA


Home > North America > United States > Nebraska
Elevation: 724 meters     Latitude: 41 46N     Longitude: 099 23W

WEATHER
 
SELECT A DAY
Number of Records: 168,087;   Date Range: 1/1/95 - 4/14/14
 
SHARE

PRINT THIS DATA

[ ← Previous Day ]
WEATHER ALMANAC - 31 JANUARY, 2013
[ Next Day → ]
[ °F ]   °C
Weather ElementAverageHighLow
Temperature-13.3 °C-10.6 °C (1:53 am)-18.3 °C (8:53 pm)
Dewpoint-18.8 °C-13.9 °C (1:53 am)-22.2 °C (8:53 pm)
Humidity65.3 %81 % (2:53 am)44 % (3:53 pm)
Barometer1025.4 hPa1031.8 hPa (8:53 pm)1016.6 hPa (1:53 am)
Wind Speed22.5 km/h48.1 km/h (10:18 am)
Wind Gust61.2 km/h (10:18 am)
Weather ElementAverage
Visibility15.9 km
Wind DirectionWNW (283 °)

Weather ElementTotal
Precipitation---
Heating Degree Days32.8 (Base 18.3)
Averaged from 27 records on 31 January, 2013
WEATHER CONDITIONS BREAKOUT
WIND DIRECTION BREAKOUT
WEATHER BY HOUR - 31 JANUARY, 2013
[ °F ]   °C
Local TimeTemperatureDewpointHumidityBarometerVisibilityWind DirectionWind SpeedGust SpeedPrecipitationEventsConditions
1:53 AM-10.6 °C-13.9 °C77 %1016.6 hPa12.9 kmNorth (350°)14.8 km/h0 mmSnowLight Snow
2:53 AM-11.7 °C-14.4 °C81 %1017.3 hPa16.1 kmNorth (350°)9.3 km/hMostly Cloudy
3:53 AM-11.7 °C-14.4 °C81 %1017.9 hPa16.1 kmWNW (300°)11.1 km/hMostly Cloudy
4:53 AM-12.2 °C-15 °C80 %1019 hPa16.1 kmNW (310°)14.8 km/hScattered Clouds
5:53 AM-11.7 °C-15 °C77 %1019.6 hPa16.1 kmNNW (330°)13 km/hOvercast
6:18 AM-12 °C-15 °C79 %1016.6 hPa16.1 kmNNW (330°)22.2 km/h0 mmOvercast
6:53 AM-13.3 °C-16.1 °C80 %1021.7 hPa16.1 kmNorth (360°)27.8 km/h38.9 km/h0 mmOvercast
7:02 AM-14 °C-17 °C79 %1017.6 hPa16.1 kmNorth (350°)24.1 km/hOvercast
7:53 AM-14.4 °C-18.9 °C69 %1023.4 hPa16.1 kmNNW (330°)25.9 km/hMostly Cloudy
8:53 AM-14.4 °C-19.4 °C67 %1025.1 hPa16.1 kmNNW (330°)35.2 km/h46.3 km/hScattered Clouds
9:19 AM-14 °C-19 °C67 %1021.7 hPa16.1 kmNNW (330°)31.5 km/h46.3 km/hMostly Cloudy
9:53 AM-12.8 °C-18.3 °C64 %1026.4 hPa16.1 kmNW (320°)40.7 km/h51.8 km/hOvercast
10:18 AM-13 °C-20 °C57 %1023 hPa16.1 kmNNW (340°)48.1 km/h61.2 km/hScattered Clouds
10:53 AM-13.3 °C-20 °C58 %1027.8 hPa16.1 kmNW (320°)44.4 km/h55.5 km/hPartly Cloudy
11:53 AM-12.2 °C-21.1 °C48 %1028.4 hPa16.1 kmNNW (340°)44.4 km/h55.5 km/hClear
12:53 PM-12.2 °C-20.6 °C51 %1028.8 hPa16.1 kmNW (320°)40.7 km/h51.8 km/hClear
1:53 PM-11.1 °C-20.6 °C46 %1028.8 hPa16.1 kmNW (320°)33.3 km/h46.3 km/hClear
2:53 PM-11.7 °C-20.6 °C49 %1028.8 hPa16.1 kmNW (310°)31.5 km/h44.4 km/hClear
3:53 PM-11.7 °C-21.7 °C44 %1029.5 hPa16.1 kmNW (320°)29.6 km/h38.9 km/hClear
4:53 PM-11.7 °C-21.1 °C47 %1029.8 hPa16.1 kmNW (310°)20.4 km/hClear
5:53 PM-13.9 °C-21.7 °C53 %1030.1 hPa16.1 kmNW (320°)16.7 km/hClear
6:53 PM-14.4 °C-21.1 °C58 %1030.1 hPa16.1 kmNorth (350°)14.8 km/hClear
7:53 PM-16.7 °C-21.7 °C66 %1031.2 hPa16.1 kmCalmClear
8:53 PM-18.3 °C-22.2 °C72 %1031.8 hPa16.1 kmSSW (210°)5.6 km/hClear
9:53 PM-16.7 °C-20 °C76 %1031.2 hPa16.1 kmCalmOvercast
10:53 PM-15 °C-19.4 °C70 %1031.2 hPa16.1 kmCalmOvercast
11:53 PM-14.4 °C-19.4 °C67 %1030.8 hPa16.1 kmSouth (190°)9.3 km/hOvercast
Hourly data recorded from KODX, located 39.11 kilometers away from Taylor, Nebraska







STORIES FROM OUR PARTNERS